Overview Statistics Trail Chart Weather Telemetry Raw packets
 

This is the latest recevied weather packets stored in our database for station/object YD2CLX-11. If no packets are shown the sender has not sent any weather packets the latest 10 day(s).

<< 11 12 13 14 15 16 17 >>
Time Temp. Humidity Pressure Rain* Wind** Luminosity Snow
1788416375 36.67° C 42% 996.3 hPa - - - -
1788415774 35.56° C 44% 996.4 hPa - - - -
1788415174 36.11° C 43% 996.7 hPa - - - -
1788414572 36.11° C 43% 996.9 hPa - - - -
1788413971 35.56° C 43% 997 hPa - - - -
1788413369 37.22° C 43% 997.2 hPa - - - -
1788412768 36.11° C 45% 997.6 hPa - - - -
1788412167 36.67° C 43% 997.7 hPa - - - -
1788411566 37.78° C 39% 997.8 hPa - - - -
1788410965 36.67° C 40% 998 hPa - - - -
1788410364 35.56° C 42% 998.2 hPa - - - -
1788409762 35° C 43% 998.4 hPa - - - -
1788409162 37.22° C 39% 998.6 hPa - - - -
1788408561 36.11° C 44% 998.7 hPa - - - -
1788407960 35.56° C 44% 998.9 hPa - - - -
1788407359 33.89° C 48% 999 hPa - - - -
1788406758 33.89° C 48% 999.3 hPa - - - -
1788406157 33.89° C 47% 999.5 hPa - - - -
1788405556 33.89° C 47% 999.6 hPa - - - -
1788404954 35° C 45% 999.7 hPa - - - -
1788404354 36.11° C 43% 999.9 hPa - - - -
1788403751 35.56° C 44% 1000 hPa - - - -
1788403150 36.11° C 43% 1000.2 hPa - - - -
1788402550 33.89° C 47% 1000.4 hPa - - - -
1788401949 35.56° C 44% 1000.5 hPa - - - -

* Rain since midnight (hover to see other rain measurements)
** Current wind speed in m/s (hover to see current wind gust speed)